Regional Weather Roundup
Issued by NWS Sterling, VA

Home | Current Version | Previous Version | Graphics & Text | Print | Product List | Glossary On
Versions: 1 2 3 4 5 6 7 8 9 10 11 12 13 14 15 16 17 18 19 20 21 22 23 24 25 26 27 28 29 30 31 32 33 34 35 36 37 38 39 40 41 42 43 44 45 46 47 48 49 50
000
ASUS41 KLWX 280310
RWRLWX

REGIONAL WEATHER ROUNDUP
NATIONAL WEATHER SERVICE BALTIMORE MD/WASHINGTON DC
1100 PM EDT FRI MAR 27 2015

Note: "FAIR" indicates few or no clouds below 12,000 feet
with no significant weather and/or obstructions to visibility.
 TC=TEMPERATURE CELSIUS

 * =Non NWS site. Station does not report precipitation (e.g. rain,
    snow, etc.), thunder, or fog.

DCZ001-MDZ009-015-VAZ040>042-051-053>054-280400-
WASHINGTON METRO

CITY           SKY/WX    TMP DP  RH WIND       PRES   REMARKS
WASHINGTON NAT MOCLDY    46  25  43 N17       29.84S
DULLES         MOCLDY    41  22  46 N15       29.84S
ANDREWS AFB    CLOUDY    42  25  51 N16       29.81S
FT BELVOIR     MOCLDY    44  23  44 NW9G17    29.84R
QUANTICO       PTCLDY    44  24  45 N12G25    29.85R
COLLEGE PARK*  MOCLDY    43  25  49 NW9G16    29.83R
LEESBURG*      MOCLDY    41  28  60 N12G21    29.85F
MANASSAS*      MOCLDY    39  27  60 N7        29.85R
GAITHERSBURG*  CLOUDY    39  23  52 N8        29.87S

$$

MDZ006>007-011-014-280400-
BALTIMORE METRO

CITY           SKY/WX    TMP DP  RH WIND       PRES   REMARKS
BWI AIRPORT    CLOUDY    42  25  50 NW7       29.81F
MD SCIENCE CTR   N/A     45  22  40 MISG      29.81
MARTIN STATE   MOCLDY    43  28  56 NW10      29.83F
ANNAPOLIS      CLOUDY    44  28  53 NW10      29.81F

$$

MDZ012-015-019>023-280400-
MARYLAND EASTERN SHORE

CITY           SKY/WX    TMP DP  RH WIND       PRES   REMARKS
OCEAN CITY     CLOUDY    38  37  97 NW3       29.79S
SALISBURY      CLOUDY    39  37  92 W5        29.79S
BAY BRIDGE AP*   N/A     43  32  65 NW10      29.81F
CAMBRIDGE*     CLOUDY    41  37  87 CALM      29.79F
EASTON*        CLOUDY    41  41 100 CALM      29.83F

$$

MDZ017>025-280400-
SOUTHERN MARYLAND

CITY           SKY/WX    TMP DP  RH WIND       PRES   REMARKS
PATUXENT RIVER CLOUDY    40  37  89 W5        29.81S
ST INIGOES     CLOUDY    40  36  86 W5        29.80S
LEONARDTOWN*   CLOUDY    37  36  93 W3        29.82S

$$

MDZ003>005-280400-
NORTH CENTRAL MARYLAND

CITY           SKY/WX    TMP DP  RH WIND       PRES   REMARKS
FREDERICK*     CLOUDY    41  21  45 N13       29.88R
HAGERSTOWN APT CLOUDY    36  23  59 NW13      29.86S WCI  27
WESTMINSTER*   CLOUDY    39  23  52 NW9       29.83R

$$

MDZ501>502-280400-
WESTERN MARYLAND

CITY           SKY/WX    TMP DP  RH WIND       PRES   REMARKS
OAKLAND*       CLOUDY    21 N/A N/A NW10G17   29.82R FOG     WCI  10
CUMBERLAND*    PTCLDY    34  21  60 NW7       29.95S

$$

VAZ025>031-280400-
SHENANDOAH VALLEY

CITY           SKY/WX    TMP DP  RH WIND       PRES   REMARKS
WINCHESTER*    MOCLDY    37  21  52 NW14G21   29.86S WCI  29
FRONT ROYAL*   CLOUDY    37  25  60 NW5       29.85S
LURAY*         CLOUDY    39  30  70 E5        29.85R
NEW MARKET*    CLOUDY    37  27  67 CALM      29.85S
STAUNTON*      CLOUDY    38  25  58 NW7       29.85S
WAYNESBORO*    FAIR      36  22  57 NW7       29.83R

$$

WVZ021-048>050-054>055-280400-
EASTERN WEST VIRGINIA PANHANDLE

CITY           SKY/WX    TMP DP  RH WIND       PRES   REMARKS
MARTINSBURG    MOCLDY    38  24  57 N14G22    29.87R
PETERSBURG*    CLOUDY    35  22  58 NW8       29.91R WCI  29

$$

VAZ036>039-050-280400-
CENTRAL FOOTHILLS

CITY           SKY/WX    TMP DP  RH WIND       PRES   REMARKS
CHARLOTTESVILL CLOUDY    42  25  50 NW3       29.82R
CULPEPER*      CLOUDY    43  27  52 N10G16    29.85R
ORANGE*        CLOUDY    43  30  61 N8        29.85R
GORDONSVILLE*  CLOUDY    42  26  53 N5        29.82R
WARRENTON*     FAIR      42  31  65 N12G18    29.84R

$$

VAZ055>057-280400-
NORTH AND CENTRAL PIEDMONT

CITY           SKY/WX    TMP DP  RH WIND       PRES   REMARKS
FREDERICKSBRG* CLOUDY    45  28  52 N9G16     29.83R
STAFFORD*      PTCLDY    40  27  58 NW8       29.88R

$$

NCZ024-NYZ072-PAZ021-071-VAZ022-071-280400-
OTHER REGIONAL OBSERVATIONS

CITY           SKY/WX    TMP DP  RH WIND       PRES   REMARKS
NEW YORK CITY  CLOUDY    42  24  49 VRB5      29.81R
PHILADELPHIA   CLOUDY    43  23  45 N12       29.81S
PITTSBURGH     CLOUDY    23  14  68 N17       29.99R WCI   9
ROANOKE        MOCLDY    39  23  52 N12       29.87R
RICHMOND       CLOUDY    42  37  82 W5        29.81R
RALEIGH        MOCLDY    40  38  93 CALM      29.82S

$$

ANZ530>537-280400-
MARINE OBSERVATIONS

STATION/POSITION TIME  TEMP    WIND        PRES
                       AIR SEA DIR/SP/G
                 (UTC) (F)     (DEG/KT/KT) (MB)
THOMAS PT LIGHT  0300                        N/A
BALT KEY BRIDGE  0200   45     310/ 12/ 14 1009.9R
COVE POINT       0200   40     310/  4/  5 1009.3R
LEWISETTA        0200   40 47              1009.3R
SOLOMONS ISLAND  0212      43                N/A
PINEY POINT      0212          320/  3/  4   N/A

$$




USA.gov is the U.S. government's official web portal to all federal, state and local government web resources and services.